Voltar ao catálogo

STARLINK-36688

AtivoComunicaçõesSSO
NORAD 67656·PAYLOAD·🇺🇸 United States

Lançado Feb 2, 2026 de Vandenberg Space Force Base

Loading…

Próximas Passagens (próximas 24 horas)

TLE

AtualizadoSource: CelesTrak SupGP

Época: Sep 14, 2026, 21:06 UTC

1 67656C 26022J   26257.87965278  .00012592  00000+0  39097-3 0  2572
2 67656  97.2846 289.5825 0000927  95.0783 121.7876 15.33427965    15

Acompanhe STARLINK-36688 em tempo real com AllMySat

Download on the App Store